Precipitable_Water
1.51 1.48 1.50 1.55 1.57 1.59 1.55 1.50 1.48 1.46 1.44 1.43 1.42 1.43 1.44 1.41 1.37 1.31 1.30 1.31 1.27 1.21 1.13 1.09 1.07 1.03 0.99 0.96 0.95 0.95 0.94 0.94 0.95 0.96 0.96 0.94 0.94 0.95 0.96 0.98 0.97 0.94 0.89 0.88 0.88 0.85 0.89 0.91 0.93 0.94 0.97 1.03 1.09 1.11 1.12 1.11 1.13 1.18 1.20 1.23 1.29 1.32 1.34 1.30 1.28 1.32 1.36 1.43 1.46 1.48 1.57 1.61 1.61 1.62 1.64 1.65 1.66 1.66 1.66 1.65 1.61 1.50 1.41 1.39 1.30
1.47 1.50 1.52 1.55 1.57 1.58 1.57 1.50 1.46 1.46 1.45 1.43 1.42 1.44 1.44 1.41 1.39 1.32 1.30 1.31 1.30 1.26 1.20 1.16 1.12 1.06 1.02 0.98 0.96 0.96 0.96 0.97 0.98 0.98 0.98 0.96 0.93 0.96 0.96 0.95 0.94 0.91 0.89 0.88 0.86 0.87 0.87 0.90 0.94 0.96 0.97 1.01 1.06 1.10 1.11 1.11 1.16 1.19 1.22 1.23 1.24 1.24 1.25 1.31 1.37 1.39 1.42 1.48 1.51 1.55 1.58 1.59 1.59 1.63 1.66 1.66 1.66 1.65 1.63 1.57 1.44 1.33 1.28 1.21 1.20
1.55 1.47 1.52 1.52 1.54 1.57 1.57 1.51 1.46 1.44 1.44 1.44 1.43 1.43 1.45 1.41 1.39 1.35 1.31 1.30 1.32 1.31 1.26 1.22 1.18 1.12 1.06 1.02 0.98 0.98 0.99 1.00 0.99 0.99 1.00 0.98 0.96 0.96 0.94 0.93 0.91 0.93 0.91 0.90 0.91 0.89 0.87 0.89 0.93 0.96 0.99 1.02 1.05 1.08 1.10 1.13 1.17 1.19 1.21 1.21 1.24 1.27 1.29 1.30 1.34 1.40 1.43 1.47 1.52 1.57 1.58 1.59 1.60 1.60 1.60 1.61 1.60 1.56 1.47 1.36 1.25 1.14 1.11 1.12 1.14
1.49 1.46 1.51 1.52 1.53 1.55 1.56 1.52 1.46 1.44 1.44 1.44 1.45 1.45 1.43 1.41 1.41 1.38 1.32 1.31 1.32 1.34 1.31 1.27 1.24 1.20 1.13 1.08 1.03 1.01 1.03 1.03 1.02 1.01 1.00 0.98 0.97 0.96 0.95 0.93 0.92 0.96 0.93 0.92 0.91 0.93 0.92 0.92 0.93 0.94 0.97 1.01 1.04 1.07 1.09 1.14 1.16 1.18 1.19 1.20 1.21 1.25 1.26 1.29 1.33 1.39 1.43 1.46 1.49 1.52 1.53 1.53 1.56 1.58 1.59 1.57 1.50 1.38 1.20 1.07 1.00 1.00 1.03 1.05 1.06
1.50 1.48 1.47 1.49 1.51 1.52 1.53 1.52 1.47 1.42 1.42 1.45 1.46 1.46 1.44 1.41 1.42 1.40 1.33 1.31 1.33 1.35 1.34 1.30 1.27 1.27 1.22 1.14 1.09 1.06 1.05 1.05 1.03 1.03 1.01 0.98 0.97 0.96 0.94 0.93 0.96 0.98 0.96 0.95 0.95 0.97 0.98 0.94 0.93 0.95 0.96 0.98 1.02 1.05 1.07 1.11 1.15 1.17 1.17 1.19 1.23 1.24 1.26 1.28 1.31 1.33 1.36 1.37 1.39 1.40 1.45 1.49 1.51 1.49 1.41 1.31 1.20 1.09 0.98 0.94 0.94 0.93 0.94 0.97 0.97
1.54 1.48 1.45 1.46 1.48 1.52 1.53 1.51 1.46 1.42 1.42 1.43 1.45 1.46 1.43 1.42 1.43 1.39 1.33 1.33 1.34 1.35 1.35 1.32 1.29 1.27 1.29 1.23 1.17 1.11 1.07 1.04 1.03 1.03 1.01 0.99 0.97 0.95 0.94 0.97 0.99 0.96 0.97 1.00 1.01 1.03 1.05 1.02 0.97 0.94 0.95 0.96 0.99 1.02 1.04 1.05 1.09 1.12 1.12 1.13 1.14 1.17 1.19 1.19 1.23 1.30 1.29 1.35 1.33 1.34 1.27 1.38 1.33 1.20 1.12 1.07 1.07 1.01 0.97 0.94 0.91 0.90 0.90 0.91 0.91
1.52 1.45 1.43 1.45 1.48 1.52 1.54 1.49 1.44 1.41 1.41 1.43 1.44 1.45 1.44 1.40 1.41 1.40 1.35 1.35 1.38 1.37 1.34 1.34 1.30 1.27 1.30 1.31 1.25 1.17 1.09 1.04 1.01 1.01 1.01 0.97 0.96 0.97 1.00 1.03 1.01 0.98 1.01 1.04 1.07 1.08 1.10 1.09 1.04 1.00 0.94 0.93 0.95 0.98 1.01 1.02 1.04 1.07 1.07 1.08 1.09 1.10 1.12 1.16 1.19 1.22 1.23 1.21 1.18 1.10 0.98 0.98 1.02 1.01 1.04 1.04 1.03 1.00 0.98 0.95 0.90 0.90 0.89 0.85 0.87
1.49 1.44 1.44 1.44 1.48 1.54 1.53 1.47 1.41 1.41 1.41 1.42 1.44 1.44 1.42 1.40 1.41 1.41 1.37 1.37 1.39 1.40 1.36 1.34 1.30 1.27 1.28 1.32 1.30 1.23 1.13 1.06 1.03 1.01 1.00 0.96 0.98 1.00 1.04 1.06 1.02 0.98 1.05 1.06 1.11 1.13 1.11 1.11 1.09 1.04 1.01 0.96 0.92 0.94 0.96 0.98 0.99 1.01 1.00 1.01 1.03 1.04 1.08 1.11 1.16 1.15 1.17 1.17 1.23 1.07 0.93 0.92 0.89 0.93 0.95 0.96 0.96 0.93 0.89 0.89 0.87 0.86 0.86 0.85 0.86
1.44 1.43 1.44 1.47 1.52 1.56 1.49 1.43 1.40 1.41 1.42 1.43 1.44 1.43 1.42 1.42 1.43 1.44 1.40 1.39 1.42 1.42 1.39 1.33 1.29 1.29 1.28 1.29 1.30 1.25 1.18 1.09 1.03 1.01 1.01 1.03 1.04 1.05 1.06 1.02 0.99 1.05 1.09 1.10 1.10 1.13 1.14 1.12 1.13 1.09 1.04 1.00 0.94 0.90 0.92 0.95 0.96 0.97 0.95 0.96 0.98 1.04 1.10 1.17 1.16 1.15 1.15 1.15 1.01 0.91 0.92 0.87 0.82 0.87 0.94 0.92 0.90 0.89 0.87 0.81 0.82 0.83 0.82 0.81 0.80
1.44 1.44 1.46 1.50 1.56 1.53 1.46 1.42 1.41 1.42 1.43 1.43 1.43 1.42 1.42 1.44 1.44 1.43 1.41 1.42 1.45 1.43 1.38 1.33 1.30 1.30 1.30 1.27 1.27 1.26 1.19 1.13 1.07 1.03 1.07 1.09 1.09 1.06 1.01 1.06 1.09 1.10 1.11 1.14 1.14 1.16 1.16 1.15 1.12 1.11 1.04 1.02 0.97 0.92 0.86 0.87 0.91 0.93 0.91 0.94 0.97 0.95 0.96 0.96 0.98 1.05 1.12 1.03 1.05 0.92 0.91 0.87 0.85 0.92 0.91 0.90 0.90 0.88 0.85 0.79 0.81 0.82 0.81 0.82 0.82
1.44 1.47 1.54 1.55 1.57 1.49 1.45 1.42 1.42 1.43 1.42 1.42 1.41 1.42 1.43 1.43 1.43 1.42 1.41 1.42 1.43 1.39 1.37 1.33 1.30 1.31 1.30 1.23 1.24 1.29 1.29 1.25 1.16 1.11 1.15 1.13 1.11 1.05 1.04 1.12 1.15 1.17 1.21 1.22 1.21 1.19 1.19 1.18 1.15 1.09 1.06 1.03 1.00 0.96 0.90 0.82 0.82 0.87 0.89 0.93 1.01 1.05 1.08 1.11 1.12 1.04 0.89 0.98 1.01 0.98 0.91 0.89 0.85 0.88 0.92 0.91 0.89 0.88 0.85 0.86 0.85 0.85 0.85 0.81 0.78
1.54 1.59 1.60 1.56 1.58 1.48 1.45 1.43 1.41 1.41 1.42 1.41 1.40 1.41 1.42 1.42 1.41 1.40 1.40 1.40 1.40 1.37 1.35 1.32 1.31 1.29 1.25 1.23 1.26 1.29 1.37 1.35 1.23 1.18 1.19 1.15 1.09 1.07 1.10 1.13 1.19 1.25 1.29 1.26 1.23 1.23 1.20 1.16 1.15 1.09 1.05 1.02 1.01 0.99 0.91 0.83 0.85 0.91 0.99 1.05 1.12 1.17 1.13 1.14 1.16 1.15 1.02 0.97 0.92 0.95 0.88 0.86 0.87 0.92 0.93 0.93 0.92 0.90 0.88 0.88 0.85 0.82 0.81 0.82 0.83
1.53 1.55 1.61 1.58 1.52 1.46 1.41 1.40 1.41 1.42 1.41 1.41 1.41 1.40 1.40 1.40 1.39 1.39 1.40 1.41 1.38 1.35 1.33 1.31 1.28 1.26 1.25 1.27 1.30 1.34 1.38 1.40 1.30 1.20 1.18 1.15 1.11 1.11 1.15 1.19 1.27 1.31 1.31 1.27 1.25 1.21 1.19 1.14 1.10 1.06 1.03 1.02 0.99 0.96 0.91 0.92 0.95 1.02 1.06 1.10 1.11 1.10 1.10 1.14 1.15 1.07 0.98 0.94 0.93 0.89 0.85 0.87 0.92 0.92 0.93 0.92 0.87 0.87 0.86 0.85 0.83 0.81 0.83 0.84 0.85
1.49 1.53 1.56 1.48 1.48 1.44 1.41 1.41 1.41 1.41 1.41 1.41 1.40 1.40 1.40 1.40 1.40 1.41 1.40 1.37 1.36 1.34 1.31 1.30 1.30 1.32 1.33 1.37 1.40 1.39 1.39 1.41 1.33 1.22 1.15 1.12 1.14 1.16 1.19 1.27 1.31 1.33 1.31 1.28 1.23 1.18 1.17 1.14 1.08 1.05 1.04 1.04 1.01 0.93 0.93 1.00 1.03 1.01 1.06 1.10 1.12 1.15 1.19 1.18 1.15 1.11 1.00 0.95 0.89 0.84 0.84 0.92 0.94 0.96 0.93 0.92 0.89 0.88 0.87 0.85 0.85 0.85 0.87 0.86 0.86
1.52 1.57 1.51 1.45 1.47 1.46 1.42 1.41 1.41 1.43 1.43 1.44 1.42 1.43 1.43 1.41 1.41 1.39 1.36 1.36 1.34 1.33 1.31 1.31 1.38 1.41 1.46 1.49 1.50 1.46 1.41 1.36 1.33 1.24 1.15 1.14 1.16 1.21 1.31 1.32 1.33 1.34 1.31 1.27 1.20 1.17 1.14 1.11 1.08 1.06 1.06 1.04 1.02 0.95 0.92 1.00 1.03 1.05 1.04 1.10 1.12 1.13 1.17 1.20 1.14 1.10 1.01 0.94 0.86 0.82 0.85 0.90 0.90 0.91 0.90 0.88 0.91 0.91 0.85 0.82 0.83 0.88 0.86 0.87 0.88
1.57 1.56 1.47 1.45 1.46 1.48 1.44 1.40 1.40 1.42 1.43 1.43 1.43 1.41 1.40 1.40 1.39 1.36 1.37 1.36 1.34 1.33 1.34 1.39 1.46 1.50 1.53 1.53 1.53 1.50 1.46 1.36 1.27 1.22 1.16 1.18 1.22 1.24 1.35 1.33 1.35 1.35 1.30 1.26 1.21 1.17 1.13 1.11 1.11 1.10 1.09 1.06 1.02 0.95 0.94 0.97 1.02 1.07 1.08 1.12 1.16 1.20 1.25 1.27 1.20 1.10 1.01 0.94 0.86 0.82 0.85 0.88 0.88 0.86 0.87 0.89 0.92 0.88 0.86 0.88 0.88 0.85 0.87 0.88 0.89
1.57 1.54 1.44 1.43 1.45 1.43 1.40 1.39 1.40 1.40 1.41 1.41 1.40 1.40 1.41 1.39 1.37 1.38 1.36 1.35 1.34 1.34 1.37 1.45 1.52 1.53 1.51 1.48 1.49 1.51 1.48 1.43 1.32 1.21 1.18 1.19 1.22 1.28 1.36 1.32 1.35 1.31 1.27 1.26 1.21 1.16 1.12 1.10 1.11 1.11 1.10 1.08 1.02 0.96 0.92 0.96 1.04 1.09 1.10 1.13 1.16 1.21 1.23 1.26 1.18 1.14 1.10 1.02 0.93 0.89 0.89 0.91 0.93 0.93 0.92 0.91 0.86 0.88 0.90 0.86 0.84 0.89 0.88 0.85 0.84
1.53 1.49 1.42 1.42 1.41 1.38 1.33 1.34 1.34 1.37 1.39 1.40 1.41 1.41 1.40 1.39 1.38 1.36 1.35 1.34 1.34 1.36 1.41 1.48 1.51 1.50 1.47 1.44 1.48 1.50 1.48 1.45 1.39 1.27 1.20 1.20 1.21 1.27 1.31 1.32 1.35 1.32 1.27 1.25 1.21 1.17 1.13 1.12 1.14 1.14 1.12 1.09 1.04 0.96 0.91 0.93 1.04 1.09 1.12 1.14 1.17 1.21 1.24 1.22 1.18 1.16 1.10 1.07 1.00 0.93 0.91 0.93 0.97 0.97 0.93 0.91 0.93 0.92 0.91 0.90 0.91 0.88 0.88 0.90 0.88
1.51 1.46 1.42 1.39 1.36 1.34 1.30 1.32 1.34 1.33 1.37 1.40 1.41 1.41 1.42 1.42 1.40 1.37 1.36 1.37 1.36 1.38 1.43 1.47 1.48 1.46 1.45 1.47 1.49 1.49 1.46 1.44 1.42 1.37 1.26 1.22 1.18 1.23 1.29 1.32 1.35 1.31 1.26 1.23 1.20 1.17 1.15 1.15 1.16 1.16 1.16 1.11 1.05 0.96 0.92 0.95 1.03 1.09 1.11 1.15 1.17 1.21 1.25 1.30 1.16 1.12 1.07 1.03 1.00 0.98 0.97 0.98 0.99 0.99 0.97 0.97 0.95 0.91 0.86 0.88 0.86 0.86 0.86 0.86 0.86
1.53 1.46 1.38 1.38 1.35 1.30 1.29 1.25 1.28 1.30 1.34 1.39 1.42 1.43 1.44 1.45 1.44 1.41 1.40 1.38 1.36 1.40 1.42 1.45 1.46 1.46 1.45 1.48 1.49 1.50 1.47 1.42 1.42 1.41 1.33 1.25 1.22 1.23 1.31 1.34 1.34 1.29 1.25 1.22 1.20 1.18 1.17 1.17 1.18 1.20 1.20 1.18 1.11 1.02 0.98 1.00 1.02 1.09 1.12 1.16 1.18 1.21 1.17 1.19 1.17 1.15 1.05 1.01 0.98 0.94 0.97 0.93 0.95 0.97 0.95 0.92 0.91 0.90 0.90 0.89 0.88 0.86 0.85 0.85 0.84
1.52 1.51 1.42 1.38 1.35 1.30 1.26 1.24 1.29 1.33 1.33 1.38 1.43 1.46 1.46 1.49 1.49 1.48 1.45 1.39 1.36 1.39 1.43 1.44 1.45 1.45 1.44 1.45 1.48 1.49 1.47 1.42 1.39 1.41 1.39 1.31 1.25 1.27 1.32 1.34 1.33 1.25 1.24 1.21 1.19 1.17 1.17 1.17 1.19 1.21 1.22 1.22 1.19 1.13 1.07 1.04 1.04 1.06 1.12 1.14 1.19 1.21 1.22 1.19 1.16 1.10 1.04 0.99 0.96 0.94 0.97 0.99 0.99 0.97 0.96 0.96 0.94 0.94 0.92 0.90 0.88 0.85 0.83 0.82 0.82
1.41 1.43 1.42 1.40 1.35 1.33 1.28 1.29 1.33 1.34 1.40 1.47 1.45 1.49 1.49 1.52 1.54 1.53 1.47 1.39 1.39 1.42 1.44 1.43 1.47 1.43 1.41 1.43 1.45 1.46 1.54 1.44 1.41 1.40 1.38 1.36 1.32 1.33 1.32 1.30 1.29 1.26 1.20 1.19 1.19 1.15 1.15 1.18 1.21 1.23 1.26 1.24 1.21 1.17 1.14 1.12 1.11 1.10 1.14 1.18 1.21 1.22 1.18 1.17 1.15 1.11 1.06 1.01 0.96 0.97 0.99 0.99 0.95 0.94 0.96 0.93 0.91 0.88 0.86 0.88 0.87 0.86 0.85 0.84 0.83
1.34 1.35 1.37 1.37 1.39 1.41 1.38 1.37 1.36 1.43 1.50 1.51 1.48 1.51 1.50 1.55 1.57 1.52 1.45 1.43 1.43 1.44 1.44 1.47 1.46 1.47 1.41 1.40 1.44 1.54 1.55 1.50 1.46 1.46 1.40 1.37 1.38 1.36 1.32 1.26 1.24 1.22 1.17 1.17 1.17 1.16 1.14 1.15 1.19 1.24 1.25 1.24 1.19 1.18 1.13 1.15 1.12 1.15 1.21 1.25 1.27 1.27 1.24 1.24 1.15 1.13 1.09 1.04 0.92 0.97 0.99 0.97 0.97 0.98 0.96 0.95 0.93 0.92 0.91 0.90 0.88 0.85 0.83 0.83 0.83
1.30 1.34 1.35 1.42 1.47 1.45 1.45 1.45 1.42 1.49 1.52 1.53 1.56 1.53 1.54 1.60 1.57 1.50 1.46 1.46 1.48 1.47 1.44 1.46 1.45 1.49 1.41 1.42 1.53 1.57 1.56 1.56 1.57 1.62 1.57 1.51 1.44 1.37 1.35 1.28 1.23 1.21 1.17 1.16 1.16 1.15 1.15 1.16 1.15 1.18 1.23 1.25 1.26 1.26 1.22 1.16 1.16 1.17 1.21 1.28 1.31 1.25 1.26 1.30 1.18 1.14 1.09 1.04 0.97 0.99 0.97 0.96 0.92 0.96 0.95 0.94 0.95 0.94 0.94 0.91 0.89 0.88 0.86 0.85 0.84
1.34 1.39 1.40 1.42 1.48 1.50 1.53 1.51 1.51 1.59 1.58 1.57 1.57 1.53 1.58 1.61 1.55 1.52 1.47 1.49 1.49 1.50 1.52 1.50 1.54 1.53 1.49 1.50 1.54 1.54 1.57 1.59 1.61 1.66 1.64 1.60 1.50 1.42 1.39 1.33 1.29 1.20 1.17 1.14 1.11 1.11 1.12 1.11 1.12 1.12 1.14 1.23 1.28 1.31 1.31 1.26 1.23 1.20 1.26 1.30 1.29 1.36 1.38 1.36 1.23 1.16 1.12 1.09 1.05 1.04 1.04 1.03 1.00 0.98 0.96 0.97 0.95 0.91 0.90 0.90 0.90 0.86 0.85 0.86 0.84
1.37 1.34 1.37 1.45 1.55 1.63 1.62 1.59 1.63 1.67 1.73 1.67 1.64 1.60 1.62 1.56 1.53 1.55 1.52 1.55 1.52 1.55 1.58 1.52 1.53 1.54 1.48 1.51 1.55 1.57 1.58 1.60 1.61 1.62 1.61 1.57 1.50 1.42 1.40 1.35 1.29 1.22 1.18 1.11 1.09 1.11 1.09 1.12 1.10 1.09 1.13 1.18 1.26 1.29 1.36 1.37 1.34 1.33 1.38 1.39 1.36 1.38 1.41 1.39 1.32 1.25 1.20 1.18 1.16 1.14 1.11 1.08 1.06 1.03 1.01 0.97 0.96 0.97 0.94 0.93 0.89 0.86 0.84 0.82 0.85
1.30 1.35 1.42 1.51 1.56 1.62 1.65 1.60 1.54 1.56 1.66 1.78 1.73 1.66 1.63 1.62 1.61 1.60 1.55 1.53 1.55 1.54 1.55 1.57 1.52 1.48 1.50 1.54 1.52 1.51 1.54 1.56 1.57 1.55 1.54 1.54 1.49 1.46 1.33 1.29 1.26 1.20 1.17 1.17 1.10 1.09 1.05 1.08 1.09 1.09 1.13 1.13 1.18 1.29 1.33 1.37 1.38 1.38 1.40 1.40 1.41 1.43 1.50 1.54 1.41 1.32 1.24 1.23 1.23 1.20 1.16 1.10 1.04 1.04 1.01 0.99 0.98 0.95 0.92 0.91 0.91 0.90 0.87 0.84 0.85
1.31 1.36 1.45 1.55 1.64 1.60 1.59 1.59 1.54 1.55 1.62 1.70 1.73 1.71 1.71 1.70 1.69 1.68 1.64 1.61 1.56 1.54 1.57 1.51 1.50 1.49 1.51 1.56 1.54 1.51 1.50 1.53 1.52 1.46 1.44 1.46 1.40 1.36 1.34 1.28 1.23 1.23 1.18 1.21 1.18 1.15 1.14 1.14 1.11 1.09 1.10 1.13 1.12 1.22 1.32 1.34 1.36 1.35 1.34 1.36 1.39 1.43 1.31 1.46 1.50 1.38 1.33 1.28 1.27 1.24 1.15 1.06 1.04 1.02 1.02 1.00 0.98 0.98 0.99 0.97 0.93 0.92 0.93 0.91 0.90
1.30 1.39 1.49 1.65 1.58 1.54 1.54 1.58 1.61 1.63 1.65 1.64 1.60 1.62 1.65 1.63 1.69 1.70 1.64 1.63 1.61 1.59 1.56 1.52 1.49 1.51 1.54 1.54 1.54 1.49 1.51 1.48 1.41 1.41 1.40 1.34 1.35 1.32 1.31 1.29 1.28 1.25 1.23 1.28 1.26 1.24 1.23 1.24 1.19 1.14 1.15 1.17 1.19 1.25 1.31 1.33 1.32 1.36 1.28 1.30 1.33 1.38 1.27 1.43 1.56 1.42 1.37 1.35 1.29 1.26 1.15 1.11 1.11 1.08 1.06 1.07 1.04 1.02 1.01 1.00 0.98 0.96 0.93 0.91 0.87
1.32 1.45 1.52 1.55 1.45 1.51 1.57 1.58 1.61 1.65 1.59 1.56 1.54 1.59 1.60 1.56 1.66 1.68 1.65 1.64 1.60 1.57 1.54 1.52 1.52 1.51 1.48 1.54 1.56 1.47 1.45 1.42 1.43 1.46 1.46 1.41 1.43 1.40 1.38 1.36 1.40 1.40 1.37 1.40 1.38 1.35 1.28 1.27 1.28 1.25 1.22 1.20 1.17 1.20 1.19 1.19 1.27 1.36 1.34 1.31 1.33 1.42 1.42 1.58 1.52 1.43 1.40 1.39 1.32 1.27 1.20 1.18 1.18 1.18 1.16 1.14 1.13 1.10 1.07 1.01 0.99 0.96 0.92 0.89 0.86
1.41 1.40 1.42 1.38 1.49 1.50 1.53 1.57 1.60 1.55 1.48 1.49 1.55 1.53 1.54 1.53 1.63 1.66 1.65 1.61 1.58 1.57 1.54 1.55 1.54 1.51 1.48 1.54 1.55 1.50 1.48 1.51 1.49 1.52 1.48 1.46 1.41 1.38 1.32 1.36 1.36 1.35 1.35 1.41 1.42 1.34 1.35 1.28 1.27 1.23 1.20 1.15 1.11 1.16 1.16 1.19 1.20 1.28 1.33 1.33 1.31 1.43 1.57 1.54 1.51 1.49 1.51 1.49 1.39 1.33 1.26 1.26 1.27 1.26 1.26 1.23 1.17 1.12 1.06 1.03 1.02 1.01 1.01 0.98 0.95
1.35 1.38 1.37 1.35 1.43 1.48 1.50 1.51 1.49 1.47 1.45 1.48 1.51 1.48 1.56 1.60 1.63 1.65 1.63 1.61 1.55 1.50 1.49 1.51 1.51 1.51 1.52 1.51 1.53 1.51 1.49 1.48 1.46 1.51 1.45 1.39 1.32 1.27 1.28 1.31 1.30 1.37 1.37 1.39 1.38 1.39 1.39 1.37 1.32 1.35 1.34 1.29 1.31 1.32 1.33 1.30 1.32 1.35 1.33 1.32 1.37 1.46 1.51 1.49 1.48 1.52 1.57 1.43 1.38 1.38 1.37 1.35 1.34 1.35 1.33 1.24 1.18 1.15 1.15 1.16 1.16 1.15 1.14 1.11 1.08
1.37 1.35 1.36 1.36 1.36 1.43 1.45 1.48 1.48 1.42 1.40 1.39 1.43 1.49 1.57 1.62 1.64 1.63 1.63 1.57 1.52 1.53 1.52 1.53 1.54 1.52 1.51 1.51 1.54 1.53 1.53 1.46 1.47 1.60 1.44 1.37 1.33 1.32 1.32 1.38 1.45 1.47 1.50 1.48 1.48 1.47 1.46 1.44 1.37 1.45 1.42 1.35 1.36 1.36 1.39 1.41 1.38 1.41 1.41 1.40 1.43 1.47 1.48 1.54 1.52 1.50 1.46 1.39 1.43 1.45 1.43 1.42 1.40 1.39 1.37 1.30 1.27 1.26 1.23 1.20 1.18 1.17 1.17 1.17 1.15
1.33 1.36 1.40 1.34 1.38 1.43 1.47 1.46 1.43 1.37 1.37 1.38 1.44 1.49 1.53 1.57 1.64 1.65 1.61 1.59 1.59 1.58 1.57 1.58 1.56 1.53 1.52 1.52 1.53 1.50 1.46 1.48 1.58 1.61 1.45 1.45 1.42 1.39 1.41 1.44 1.47 1.48 1.51 1.51 1.46 1.44 1.42 1.41 1.36 1.37 1.33 1.34 1.42 1.39 1.37 1.39 1.41 1.41 1.42 1.45 1.43 1.45 1.50 1.48 1.42 1.52 1.46 1.45 1.45 1.44 1.48 1.50 1.46 1.43 1.42 1.40 1.36 1.32 1.31 1.29 1.28 1.26 1.24 1.23 1.21
1.33 1.34 1.33 1.34 1.37 1.42 1.46 1.43 1.42 1.38 1.38 1.44 1.47 1.49 1.54 1.60 1.62 1.63 1.65 1.63 1.62 1.61 1.61 1.58 1.56 1.52 1.53 1.53 1.55 1.48 1.50 1.57 1.59 1.53 1.44 1.47 1.44 1.43 1.43 1.47 1.48 1.49 1.49 1.48 1.46 1.45 1.44 1.39 1.37 1.28 1.28 1.36 1.34 1.28 1.36 1.36 1.34 1.39 1.42 1.47 1.45 1.47 1.48 1.39 1.43 1.44 1.48 1.50 1.47 1.46 1.48 1.49 1.51 1.53 1.49 1.46 1.42 1.37 1.34 1.32 1.31 1.30 1.31 1.33 1.38
1.28 1.33 1.40 1.37 1.36 1.43 1.47 1.45 1.48 1.46 1.42 1.46 1.50 1.50 1.54 1.60 1.63 1.66 1.73 1.69 1.62 1.56 1.54 1.51 1.54 1.56 1.53 1.50 1.49 1.47 1.46 1.64 1.55 1.54 1.46 1.49 1.45 1.42 1.43 1.44 1.49 1.48 1.43 1.46 1.44 1.39 1.39 1.37 1.38 1.33 1.24 1.35 1.34 1.28 1.33 1.36 1.43 1.38 1.43 1.43 1.46 1.46 1.39 1.30 1.34 1.39 1.44 1.46 1.48 1.49 1.49 1.49 1.52 1.52 1.49 1.43 1.39 1.37 1.34 1.33 1.32 1.34 1.38 1.40 1.40
1.31 1.34 1.36 1.35 1.38 1.43 1.48 1.46 1.46 1.49 1.48 1.45 1.49 1.55 1.56 1.57 1.64 1.66 1.68 1.71 1.59 1.55 1.55 1.56 1.58 1.59 1.60 1.55 1.56 1.60 1.63 1.54 1.52 1.51 1.49 1.49 1.48 1.42 1.45 1.46 1.52 1.42 1.43 1.37 1.39 1.39 1.41 1.40 1.32 1.34 1.31 1.26 1.36 1.32 1.28 1.38 1.32 1.33 1.36 1.38 1.40 1.39 1.35 1.31 1.38 1.40 1.44 1.46 1.50 1.49 1.48 1.51 1.54 1.54 1.49 1.42 1.38 1.38 1.41 1.45 1.46 1.48 1.48 1.46 1.42
1.30 1.34 1.38 1.37 1.35 1.40 1.43 1.45 1.52 1.56 1.49 1.49 1.54 1.57 1.55 1.56 1.60 1.60 1.58 1.62 1.64 1.60 1.60 1.59 1.57 1.58 1.62 1.58 1.55 1.56 1.54 1.54 1.55 1.45 1.51 1.46 1.48 1.53 1.46 1.44 1.45 1.36 1.43 1.38 1.32 1.35 1.37 1.37 1.28 1.29 1.27 1.29 1.30 1.24 1.25 1.36 1.39 1.39 1.37 1.35 1.37 1.39 1.35 1.35 1.44 1.43 1.46 1.44 1.46 1.48 1.52 1.52 1.56 1.52 1.50 1.49 1.45 1.46 1.49 1.51 1.51 1.48 1.44 1.40 1.40
1.29 1.32 1.35 1.39 1.43 1.48 1.48 1.47 1.50 1.49 1.52 1.54 1.53 1.51 1.58 1.60 1.64 1.60 1.55 1.48 1.55 1.56 1.56 1.53 1.54 1.56 1.59 1.59 1.54 1.54 1.51 1.52 1.55 1.51 1.47 1.46 1.51 1.51 1.48 1.42 1.39 1.36 1.35 1.32 1.30 1.33 1.30 1.29 1.29 1.21 1.29 1.32 1.23 1.24 1.28 1.30 1.30 1.29 1.28 1.31 1.34 1.33 1.36 1.42 1.47 1.45 1.45 1.45 1.49 1.50 1.48 1.55 1.52 1.44 1.49 1.50 1.48 1.49 1.49 1.49 1.45 1.37 1.35 1.37 1.38
1.31 1.32 1.33 1.39 1.42 1.44 1.46 1.46 1.48 1.53 1.58 1.50 1.53 1.52 1.54 1.56 1.51 1.50 1.55 1.51 1.50 1.51 1.58 1.53 1.55 1.57 1.57 1.53 1.52 1.56 1.52 1.55 1.53 1.49 1.45 1.48 1.45 1.43 1.43 1.39 1.35 1.33 1.23 1.22 1.28 1.27 1.24 1.21 1.20 1.20 1.19 1.26 1.28 1.37 1.32 1.31 1.30 1.22 1.22 1.30 1.32 1.33 1.33 1.41 1.42 1.39 1.43 1.46 1.46 1.44 1.43 1.51 1.48 1.47 1.48 1.48 1.50 1.50 1.49 1.48 1.41 1.35 1.31 1.35 1.37
1.25 1.29 1.28 1.30 1.40 1.40 1.30 1.32 1.42 1.49 1.53 1.50 1.46 1.46 1.45 1.46 1.46 1.40 1.40 1.40 1.36 1.45 1.48 1.47 1.48 1.51 1.53 1.51 1.54 1.54 1.55 1.53 1.53 1.53 1.43 1.44 1.40 1.39 1.37 1.32 1.34 1.32 1.23 1.26 1.29 1.30 1.27 1.26 1.22 1.20 1.16 1.12 1.18 1.28 1.26 1.26 1.18 1.17 1.25 1.23 1.27 1.36 1.36 1.36 1.36 1.38 1.41 1.44 1.49 1.44 1.46 1.47 1.46 1.46 1.49 1.50 1.47 1.46 1.50 1.46 1.40 1.39 1.35 1.34 1.33
1.15 1.21 1.26 1.32 1.42 1.42 1.49 1.41 1.34 1.38 1.42 1.40 1.44 1.48 1.47 1.45 1.38 1.34 1.36 1.38 1.34 1.38 1.42 1.43 1.44 1.52 1.45 1.44 1.48 1.50 1.48 1.57 1.54 1.49 1.50 1.39 1.33 1.36 1.31 1.26 1.28 1.27 1.28 1.28 1.29 1.30 1.24 1.24 1.19 1.12 1.20 1.13 1.10 1.24 1.20 1.20 1.10 1.03 1.02 1.06 1.17 1.31 1.37 1.36 1.33 1.33 1.36 1.40 1.45 1.43 1.44 1.43 1.41 1.42 1.44 1.44 1.43 1.44 1.44 1.43 1.42 1.45 1.45 1.44 1.42
1.11 1.14 1.21 1.31 1.45 1.48 1.38 1.46 1.47 1.38 1.43 1.49 1.49 1.48 1.50 1.46 1.44 1.46 1.46 1.42 1.47 1.48 1.48 1.54 1.51 1.44 1.42 1.44 1.44 1.45 1.46 1.43 1.46 1.49 1.41 1.38 1.30 1.33 1.28 1.26 1.27 1.29 1.24 1.19 1.29 1.24 1.20 1.18 1.20 1.12 1.10 1.15 1.18 1.30 1.22 1.21 1.04 1.13 1.14 1.06 0.99 0.99 1.17 1.21 1.28 1.36 1.37 1.36 1.38 1.39 1.38 1.39 1.39 1.41 1.42 1.41 1.41 1.42 1.44 1.46 1.45 1.46 1.45 1.43 1.41
1.09 1.09 1.17 1.30 1.40 1.40 1.45 1.43 1.49 1.56 1.53 1.56 1.56 1.54 1.53 1.51 1.54 1.53 1.51 1.48 1.46 1.53 1.53 1.53 1.48 1.42 1.36 1.44 1.45 1.40 1.41 1.43 1.44 1.43 1.36 1.38 1.39 1.38 1.30 1.25 1.26 1.29 1.24 1.20 1.20 1.21 1.16 1.18 1.21 1.17 1.15 1.07 1.10 1.18 1.28 1.23 1.15 1.10 0.93 0.96 1.02 1.03 0.94 1.04 1.15 1.26 1.35 1.31 1.32 1.32 1.33 1.36 1.40 1.41 1.44 1.38 1.40 1.42 1.45 1.46 1.42 1.41 1.43 1.44 1.40
1.04 1.08 1.21 1.33 1.44 1.48 1.49 1.50 1.49 1.52 1.48 1.44 1.54 1.59 1.56 1.51 1.56 1.51 1.53 1.52 1.53 1.51 1.47 1.43 1.42 1.40 1.39 1.40 1.41 1.35 1.33 1.37 1.41 1.41 1.40 1.34 1.39 1.33 1.27 1.22 1.23 1.26 1.24 1.18 1.22 1.22 1.20 1.22 1.23 1.19 1.15 1.09 1.07 1.14 1.21 1.25 1.22 1.25 1.11 1.00 0.96 0.93 0.94 1.05 1.13 1.17 1.29 1.24 1.27 1.31 1.34 1.37 1.38 1.41 1.40 1.41 1.45 1.43 1.42 1.41 1.42 1.40 1.41 1.39 1.33
1.02 1.28 1.37 1.43 1.46 1.48 1.52 1.48 1.55 1.56 1.50 1.49 1.50 1.52 1.49 1.44 1.38 1.34 1.33 1.34 1.30 1.31 1.27 1.27 1.31 1.32 1.32 1.40 1.38 1.37 1.38 1.43 1.43 1.43 1.44 1.40 1.34 1.32 1.26 1.22 1.23 1.25 1.26 1.22 1.23 1.23 1.22 1.17 1.21 1.20 1.13 1.18 1.18 1.14 1.11 1.21 1.20 1.21 1.27 1.20 1.15 1.01 1.01 1.12 1.06 0.94 1.27 1.23 1.24 1.28 1.29 1.31 1.37 1.35 1.34 1.32 1.33 1.35 1.37 1.36 1.38 1.38 1.39 1.35 1.33
1.23 1.30 1.38 1.46 1.48 1.48 1.41 1.47 1.40 1.36 1.39 1.43 1.44 1.44 1.37 1.33 1.34 1.29 1.36 1.34 1.28 1.31 1.38 1.40 1.38 1.42 1.44 1.39 1.33 1.34 1.40 1.41 1.40 1.50 1.45 1.41 1.34 1.27 1.25 1.25 1.25 1.25 1.21 1.20 1.20 1.19 1.19 1.19 1.24 1.22 1.18 1.19 1.17 1.05 1.07 1.08 1.14 1.16 1.18 1.20 1.18 1.19 1.21 1.04 0.93 1.01 0.93 1.15 1.21 1.19 1.21 1.28 1.28 1.27 1.26 1.28 1.26 1.25 1.27 1.27 1.31 1.34 1.34 1.31 1.24
1.25 1.29 1.32 1.33 1.36 1.44 1.41 1.44 1.43 1.33 1.37 1.34 1.36 1.40 1.27 1.30 1.34 1.33 1.33 1.35 1.35 1.33 1.38 1.39 1.42 1.44 1.39 1.34 1.29 1.31 1.41 1.43 1.42 1.42 1.52 1.41 1.29 1.28 1.28 1.26 1.23 1.25 1.22 1.19 1.19 1.23 1.21 1.22 1.28 1.26 1.18 1.20 1.15 1.07 1.05 1.13 1.01 1.02 1.15 1.14 1.14 1.15 1.20 1.18 1.12 1.01 0.97 0.90 0.97 1.17 1.27 1.25 1.24 1.25 1.24 1.21 1.16 1.16 1.14 1.19 1.21 1.22 1.18 1.12 1.09
1.16 1.29 1.23 1.30 1.31 1.42 1.41 1.38 1.35 1.34 1.33 1.39 1.35 1.41 1.40 1.37 1.38 1.40 1.39 1.46 1.42 1.38 1.40 1.42 1.39 1.38 1.29 1.27 1.26 1.29 1.36 1.35 1.31 1.39 1.52 1.39 1.33 1.30 1.33 1.26 1.24 1.24 1.24 1.22 1.21 1.25 1.19 1.19 1.17 1.20 1.13 1.20 1.17 1.18 1.12 1.10 1.12 1.06 1.07 1.13 1.17 1.14 1.13 1.16 1.16 1.13 1.02 0.94 0.94 0.97 1.00 1.18 1.22 1.20 1.18 1.14 1.13 1.11 1.07 1.07 1.08 1.06 1.02 0.96 0.87
1.14 1.17 1.20 1.32 1.28 1.33 1.33 1.29 1.29 1.33 1.36 1.38 1.40 1.47 1.49 1.44 1.39 1.41 1.41 1.39 1.38 1.37 1.38 1.35 1.33 1.32 1.24 1.24 1.23 1.27 1.29 1.27 1.31 1.46 1.40 1.32 1.25 1.29 1.34 1.26 1.28 1.29 1.27 1.26 1.25 1.24 1.22 1.18 1.19 1.18 1.18 1.16 1.17 1.17 1.13 1.12 1.15 1.18 1.17 1.15 1.10 1.11 1.09 1.06 1.08 1.08 1.08 1.09 0.95 0.94 0.99 0.98 0.95 1.06 1.12 1.09 1.07 0.99 0.96 0.95 0.90 0.87 0.86 0.82 0.72
1.20 1.13 1.11 1.15 1.24 1.26 1.26 1.21 1.25 1.30 1.29 1.26 1.21 1.01 1.23 1.26 1.20 1.19 1.27 1.31 1.33 1.34 1.30 1.30 1.31 1.27 1.20 1.19 1.18 1.25 1.29 1.30 1.39 1.41 1.37 1.30 1.21 1.22 1.22 1.22 1.25 1.26 1.23 1.21 1.21 1.21 1.24 1.19 1.20 1.20 1.20 1.15 1.13 1.12 1.12 1.16 1.15 1.16 1.20 1.19 1.12 1.09 1.04 1.00 1.02 1.08 1.05 1.03 1.03 1.04 1.05 1.06 0.99 0.95 1.03 1.05 0.98 0.95 0.92 0.88 0.85 0.81 0.78 0.70 0.64
Wind_Speed
9 10 12 12 12 11 11 10 10 9 9 9 9 8 7 6 6 5 4 4 4 3 3 2 2 2 2 2 2 2 2 3 3 3 3 3 4 4 5 5 6 7 7 8 8 9 9 10 10 10 11 11 11 11 11 10 10 10 10 10 11 11 11 11 11 11 10 10 10 10 9 9 9 9 9 9 9 9 9 9 9 10 10 10 10
10 11 12 12 12 11 11 11 11 10 9 9 9 9 8 7 6 6 5 5 4 4 3 2 2 2 2 2 2 2 2 2 2 3 3 3 3 4 4 5 6 6 7 7 8 9 9 10 10 10 10 11 11 11 11 10 10 10 10 10 11 11 11 11 11 11 11 10 10 10 9 9 8 8 8 8 8 8 8 9 9 9 9 10 10
10 11 12 12 12 12 12 11 11 10 10 10 9 9 8 8 7 6 6 5 5 4 3 3 3 2 2 2 2 2 2 2 2 2 2 2 3 3 4 5 5 6 7 7 8 9 9 9 10 10 10 11 11 11 11 10 10 10 10 10 11 11 11 11 11 10 10 10 9 9 9 8 8 8 8 8 8 8 8 8 8 9 9 9 10
10 11 12 12 12 12 11 11 11 11 10 10 10 9 9 8 7 7 7 6 5 5 4 3 3 3 2 2 2 2 2 2 2 2 2 2 2 3 3 4 4 5 6 7 7 8 9 9 9 10 10 10 10 11 10 10 10 10 10 10 11 11 11 11 10 10 10 9 8 8 8 8 8 7 7 7 7 7 8 8 8 9 9 9 9
10 12 12 12 12 12 11 11 11 11 10 10 10 10 9 9 8 7 7 6 6 5 4 4 3 3 3 2 2 2 2 2 2 2 2 1 2 2 2 3 4 5 5 6 7 8 9 9 9 9 10 10 10 10 10 10 10 10 10 10 11 11 11 11 10 10 9 9 8 8 7 7 7 7 7 7 7 8 8 8 8 8 8 8 9
11 12 12 12 12 11 11 11 11 11 11 10 10 10 10 9 8 8 7 7 7 6 5 4 4 4 3 3 3 3 3 3 3 2 2 1 1 1 2 2 3 4 4 5 6 7 8 8 9 9 9 9 9 9 9 9 9 10 10 10 11 11 11 10 9 8 8 7 7 7 7 6 6 7 7 7 8 8 8 8 8 8 8 8 8
11 12 12 12 12 12 12 11 11 11 11 11 10 10 10 9 9 8 8 8 7 6 6 5 5 5 4 4 3 3 3 3 3 2 2 2 1 0 1 2 2 3 3 4 5 6 7 7 8 8 9 9 9 9 8 9 9 9 10 11 11 11 10 10 9 8 7 6 6 6 6 7 7 7 7 8 7 8 8 8 9 8 9 9 9
11 12 12 12 12 12 12 12 11 11 11 11 10 10 10 10 9 9 8 8 8 7 6 6 6 5 5 4 4 4 4 4 3 3 2 2 1 1 1 2 2 2 3 3 4 5 6 6 7 8 8 8 8 8 8 8 8 9 10 10 11 10 10 9 8 7 7 7 7 7 7 7 7 7 8 8 8 8 9 9 9 9 9 9 10
12 12 12 12 12 12 12 12 11 11 11 11 11 10 10 10 10 9 9 9 9 8 7 7 7 6 6 5 5 5 4 4 4 3 3 3 2 2 1 1 1 1 2 2 3 4 5 5 6 6 7 7 7 8 7 7 8 8 9 10 10 10 10 9 9 8 8 9 9 9 8 8 8 8 8 8 9 9 9 9 9 9 9 10 10
11 12 12 12 12 13 12 11 11 11 11 11 11 11 11 10 10 10 10 9 9 8 8 8 7 7 7 6 6 5 5 5 4 4 3 3 3 2 2 2 1 1 1 1 2 3 4 4 5 5 6 6 7 7 7 7 7 7 8 9 10 10 10 10 9 9 10 10 9 9 8 8 8 8 8 8 9 9 9 9 9 9 9 10 10
11 11 11 12 12 12 11 11 11 11 11 11 11 11 11 11 11 10 10 10 9 9 9 9 8 8 7 7 6 6 6 5 5 4 4 4 3 3 2 2 2 1 1 1 1 2 3 3 4 5 5 5 6 6 6 6 6 7 7 8 9 9 9 9 8 9 10 9 9 8 8 8 8 8 8 8 9 8 9 9 9 10 9 10 10
10 10 11 12 12 12 11 11 11 11 11 11 11 11 11 11 11 11 11 10 10 10 10 9 9 8 8 7 7 7 6 6 5 5 5 4 4 4 3 3 2 2 1 1 1 1 2 3 3 4 4 4 4 5 5 6 6 7 7 7 8 8 8 8 8 8 9 8 8 8 8 8 8 8 8 8 8 8 9 9 9 9 9 9 10
10 10 11 12 11 11 11 11 11 11 11 11 11 11 12 12 12 11 11 11 11 11 10 10 9 9 8 8 7 7 7 6 6 6 6 5 5 5 4 4 3 3 2 2 1 1 1 2 2 3 3 3 3 4 5 5 6 6 6 7 7 8 8 7 7 8 8 7 8 8 8 8 8 8 8 8 8 8 9 9 9 9 9 9 9
11 10 11 11 11 11 11 11 11 11 11 11 12 12 12 12 12 12 12 11 11 11 11 10 10 9 9 8 7 6 6 7 7 7 7 6 6 6 5 5 4 4 3 2 2 1 1 1 1 2 2 2 3 3 4 4 5 5 6 6 7 7 7 6 6 8 7 7 7 8 8 8 8 8 8 8 8 8 8 8 8 8 8 9 9
10 10 11 11 11 11 11 11 11 11 12 12 12 12 13 13 12 12 12 12 11 11 11 10 10 9 8 7 7 6 6 7 7 8 7 7 7 7 6 6 5 5 4 3 3 2 1 1 1 1 2 2 2 3 3 3 4 5 5 5 6 6 6 6 6 7 6 6 6 7 7 7 8 7 7 7 7 8 8 8 8 8 8 8 8
11 10 11 11 11 11 11 12 12 12 12 12 13 13 13 13 13 13 12 12 12 11 11 11 10 9 8 8 7 7 7 7 8 8 8 8 8 8 7 7 6 6 5 4 3 3 2 1 1 1 1 1 2 2 2 2 3 4 4 4 5 5 5 5 5 6 5 5 6 6 6 7 7 7 6 6 7 7 7 7 7 7 7 7 8
11 11 11 11 11 12 12 13 13 13 13 13 13 13 13 13 13 13 12 12 12 12 11 11 10 9 8 8 8 7 7 7 7 8 9 9 9 9 8 8 7 6 6 5 4 4 3 2 1 1 1 1 1 1 1 1 1 2 3 3 4 5 5 5 6 6 5 5 6 6 6 5 5 5 5 5 6 6 6 7 6 7 7 7 7
11 12 12 12 12 13 13 13 13 13 13 13 13 13 13 13 13 13 13 12 12 12 11 11 10 9 9 8 8 7 7 7 8 8 9 9 9 10 9 9 8 7 6 6 5 4 4 3 2 2 2 1 1 1 1 1 0 1 2 2 3 4 4 4 5 4 4 4 5 5 5 4 4 4 4 4 5 5 5 5 6 6 6 6 6
12 12 12 12 13 13 13 14 14 14 14 14 14 14 14 14 13 13 13 13 12 12 11 11 11 10 9 9 8 8 7 7 8 8 9 10 10 10 10 9 9 8 7 7 6 5 5 4 3 3 2 2 1 1 1 1 0 0 1 1 2 2 3 3 3 2 2 2 3 3 4 4 4 3 4 3 4 4 4 4 5 5 5 5 5
12 12 12 13 13 13 14 14 15 15 15 15 15 15 14 14 13 13 13 13 12 12 12 11 11 10 10 9 8 8 7 8 8 9 10 10 11 11 11 10 9 9 8 7 7 6 5 5 4 4 4 3 3 2 2 2 1 1 0 0 1 2 2 1 1 0 1 1 1 1 1 2 2 2 3 3 3 3 3 3 3 4 4 4 4
12 12 13 13 14 14 14 15 15 15 15 15 15 15 14 14 13 13 13 13 13 12 12 12 11 11 10 9 8 8 8 8 9 9 10 10 11 11 11 11 10 9 9 8 8 7 6 6 5 5 5 4 4 3 3 3 2 2 1 2 2 2 2 1 1 1 1 1 0 0 0 0 1 1 1 1 1 1 2 2 2 2 3 3 3
13 13 13 14 14 14 15 15 15 15 16 15 15 15 14 14 14 14 14 13 13 12 12 12 12 11 10 9 9 9 9 9 9 9 10 10 11 11 12 11 10 10 9 9 8 8 7 7 6 6 5 6 5 5 5 4 4 3 3 3 4 4 3 2 2 2 2 2 2 2 1 1 1 1 0 0 1 0 0 1 1 2 2 2 2
14 14 14 14 14 14 15 15 16 16 16 15 15 15 14 14 14 14 14 13 13 13 13 12 12 11 10 9 9 9 9 9 9 10 10 10 11 11 11 11 11 10 10 9 9 8 8 8 7 7 6 6 6 6 6 5 5 4 4 4 5 5 4 4 3 3 4 3 3 3 3 3 2 2 2 2 2 1 1 1 2 2 2 1 2
15 15 15 15 15 15 15 15 16 16 16 15 15 14 14 14 14 14 14 14 13 13 13 12 11 11 10 10 10 10 10 10 10 10 10 10 10 11 11 11 11 11 10 10 9 9 9 8 8 8 7 7 7 7 7 7 6 6 6 6 5 5 5 5 4 4 4 4 4 4 4 4 4 4 3 3 3 3 3 3 3 3 2 2 2
15 15 16 16 17 16 16 16 16 16 15 15 14 15 14 13 14 14 14 13 13 13 12 12 11 10 10 10 9 9 10 10 10 10 10 10 10 10 11 11 11 11 11 10 10 10 10 9 9 8 8 8 8 9 8 8 7 7 8 7 7 7 6 6 5 5 5 4 5 5 5 5 5 5 4 4 4 4 4 4 4 3 3 3 2
16 16 17 17 18 17 16 15 15 15 14 14 14 15 15 14 14 13 13 12 12 12 11 11 10 10 10 10 9 9 10 10 10 10 10 10 10 10 10 10 10 10 11 11 10 10 11 10 10 9 9 9 9 9 9 9 9 9 9 8 8 8 7 6 7 7 6 5 5 6 6 6 6 6 5 5 5 5 5 5 5 4 4 4 3
17 17 18 18 18 17 15 15 15 15 15 15 15 15 15 14 14 13 12 11 11 11 10 10 10 10 10 10 10 9 10 10 11 10 10 9 9 9 9 10 9 9 10 10 10 10 11 11 10 10 9 9 9 10 9 9 10 9 9 9 9 9 9 8 8 8 8 7 7 7 7 7 7 7 6 6 6 6 6 6 6 5 5 5 4
17 18 19 19 17 15 15 15 16 16 16 16 15 15 14 13 13 12 11 11 11 10 10 10 9 10 10 10 10 10 10 11 11 10 9 9 9 9 9 9 9 9 9 10 10 10 10 10 10 9 9 9 9 9 9 9 10 10 9 9 10 11 12 11 9 8 8 8 8 7 7 7 7 7 7 7 7 7 7 7 6 6 6 6 5
17 17 18 17 15 15 16 17 17 17 16 15 15 15 14 14 14 12 11 11 11 10 10 10 10 10 10 10 10 10 11 12 11 10 9 9 9 9 9 8 8 9 9 9 9 9 9 9 9 8 8 8 8 8 9 9 9 9 10 10 10 11 11 10 9 8 8 7 7 7 7 7 8 8 8 8 8 7 7 7 7 7 6 6 5
17 16 17 16 15 16 17 17 17 17 16 15 15 16 15 14 15 13 11 11 11 10 10 10 10 10 10 10 10 10 11 12 11 10 9 9 9 8 8 8 8 8 8 8 8 8 8 8 8 8 8 8 8 8 8 8 9 9 9 9 9 9 7 9 7 7 7 6 6 7 7 7 7 8 8 8 8 7 7 7 6 6 6 5 5
16 16 17 16 16 17 17 17 18 17 16 16 16 16 16 15 15 14 12 12 11 11 11 11 10 10 11 11 11 11 11 12 12 10 9 9 9 8 8 8 8 8 8 8 8 8 7 7 7 7 7 8 8 8 8 8 8 8 8 8 8 6 6 7 7 7 6 5 6 6 7 7 7 7 8 8 7 7 6 6 6 5 5 5 4
17 17 17 17 17 17 17 17 18 18 17 17 17 16 16 16 16 15 14 13 12 12 11 11 11 11 11 11 11 11 11 12 13 11 10 9 8 8 8 8 8 8 8 8 8 7 7 7 7 7 7 7 7 7 8 8 8 7 7 7 7 6 6 6 6 7 6 6 6 6 6 6 6 6 7 6 6 6 5 5 5 5 4 4 4
17 17 17 17 18 18 17 17 18 18 18 18 17 17 17 16 16 15 15 14 13 12 12 11 11 11 11 11 11 11 11 13 14 12 10 8 8 8 8 8 8 8 8 8 7 7 7 7 7 7 7 7 7 7 7 7 7 7 7 6 6 6 6 5 6 6 6 6 6 6 6 6 6 5 6 5 5 5 5 5 5 4 4 4 4
16 17 17 17 17 17 18 18 18 18 18 18 17 17 17 16 16 15 15 15 14 13 12 11 11 11 11 11 11 11 11 13 14 12 9 8 8 8 8 8 8 8 8 8 7 7 7 6 6 7 6 6 6 5 6 6 6 6 6 6 6 6 5 5 6 6 6 6 6 6 6 6 5 5 6 6 5 5 4 4 4 4 5 5 5
16 16 17 17 17 18 18 18 18 18 18 18 18 17 17 17 16 15 15 15 14 13 13 12 12 12 11 11 11 11 12 14 14 11 9 9 9 8 8 8 8 8 7 7 7 6 6 6 6 6 6 5 4 4 4 5 5 5 6 6 6 5 4 5 6 6 6 5 5 6 5 5 5 5 5 5 5 5 4 4 4 4 4 5 4
16 16 17 17 18 18 18 18 18 18 19 18 18 18 17 16 16 15 14 14 14 13 13 13 12 12 12 12 12 12 13 14 12 10 9 9 9 8 8 8 8 8 7 7 7 6 6 6 6 6 6 5 4 4 4 4 4 4 4 5 5 5 5 5 5 5 5 5 5 5 5 5 4 4 4 4 4 4 3 3 3 3 3 4 3
16 16 17 17 18 19 19 18 19 19 19 19 19 18 17 16 16 15 14 13 13 13 12 12 12 12 12 12 12 12 13 13 11 10 10 9 9 8 8 8 8 7 7 7 7 6 6 6 6 6 5 5 4 4 4 4 3 3 3 4 4 4 4 4 4 3 4 4 4 4 4 4 3 3 3 3 4 3 3 2 2 2 2 2 3
16 17 17 18 19 19 18 19 19 19 19 19 18 18 17 17 16 15 14 13 13 13 12 12 12 11 12 12 12 12 13 12 11 11 10 9 9 9 8 8 8 8 7 7 7 7 7 7 6 6 5 5 4 4 4 4 3 3 3 3 3 3 3 3 3 3 3 3 3 3 3 3 3 3 3 3 3 3 3 2 1 1 1 2 2
17 17 18 19 19 18 18 19 19 19 19 19 17 17 17 17 16 14 13 13 13 13 13 12 11 12 12 12 12 12 12 12 12 12 11 10 9 9 9 9 8 8 7 7 7 7 7 7 6 6 5 5 4 4 4 4 3 2 2 3 2 2 2 2 2 2 2 3 3 3 3 3 3 3 3 3 3 3 3 2 1 1 2 1 1
18 18 19 20 20 19 18 18 19 19 19 17 17 17 17 16 14 13 13 13 13 13 13 12 12 12 12 12 12 12 12 13 12 12 11 10 9 9 9 9 8 8 7 7 7 7 7 7 6 6 6 5 4 4 4 4 3 2 2 2 2 1 1 1 2 2 2 2 2 2 2 3 3 3 3 3 3 3 3 2 2 2 2 2 1
20 20 20 21 21 21 20 19 19 19 18 17 17 17 17 16 14 13 13 13 13 14 14 13 12 12 12 12 12 12 12 12 12 11 11 11 10 9 9 9 8 8 8 7 7 7 7 7 6 6 6 5 4 4 4 4 3 2 2 1 1 1 1 1 1 1 1 1 0 1 2 3 3 3 3 4 4 4 3 3 2 2 2 2 2
21 21 22 22 22 22 22 19 18 17 17 17 17 17 17 16 14 13 14 14 13 14 14 13 13 13 12 13 13 13 12 12 12 11 11 11 10 10 9 9 9 8 8 8 7 7 7 7 7 6 6 6 5 5 5 4 4 3 3 2 1 1 1 0 1 1 1 1 1 1 3 3 3 4 4 4 4 4 3 3 3 2 2 2 2
22 22 22 23 23 22 21 18 17 17 17 17 17 16 15 15 14 14 14 14 13 14 13 13 13 13 13 13 13 13 13 13 12 12 11 11 11 10 10 10 9 9 8 8 8 8 7 7 7 7 6 6 5 5 5 5 4 4 3 3 2 1 0 0 0 1 1 1 2 2 3 3 4 5 4 4 4 4 3 3 3 3 3 3 3
22 22 23 24 22 21 20 18 17 18 17 16 16 15 14 14 14 13 13 13 13 13 13 13 13 13 13 13 14 14 14 13 13 12 12 12 11 11 11 10 10 9 9 9 8 8 8 7 7 7 7 6 6 5 5 5 5 4 4 3 3 2 2 1 1 0 0 1 2 3 4 4 4 5 4 4 4 4 3 3 3 3 3 3 3
23 23 23 22 20 17 17 16 17 17 15 15 15 15 14 13 13 13 13 13 13 14 14 14 14 14 14 14 14 14 14 14 13 13 12 12 12 12 11 11 10 9 9 9 8 8 8 8 7 7 7 6 6 6 5 5 5 5 4 3 3 3 3 3 2 1 1 1 2 3 4 4 4 4 4 4 3 3 3 3 3 3 3 3 3
23 21 19 18 17 16 15 15 15 13 12 13 15 15 14 14 14 13 14 14 14 14 14 14 15 14 14 14 14 14 15 14 13 13 13 12 12 12 12 11 10 10 9 9 8 8 8 8 8 7 7 7 6 6 6 6 5 5 5 4 3 3 4 4 3 1 1 2 2 3 3 3 4 3 3 3 3 2 3 3 3 3 3 3 2
23 21 20 18 16 15 15 16 14 12 11 11 13 14 13 14 15 14 15 16 16 15 15 15 15 15 14 14 14 14 14 14 13 13 13 13 12 12 12 11 11 10 9 9 9 8 8 8 8 7 7 7 7 6 6 6 6 6 5 5 4 3 4 5 3 3 3 2 3 3 3 3 3 3 3 3 3 2 2 2 2 3 3 2 2
22 22 22 20 18 17 16 16 15 13 12 12 13 14 13 14 15 15 15 16 16 15 15 15 15 15 15 14 15 15 14 14 14 13 13 12 12 12 12 11 11 10 10 9 9 9 8 8 8 8 7 7 7 7 7 6 6 6 6 5 4 4 4 4 4 4 4 4 4 3 3 4 4 4 3 3 3 3 3 3 3 3 2 2 2
24 23 21 19 18 18 18 17 16 15 15 14 14 14 14 14 14 14 15 15 15 15 15 15 15 15 14 15 15 15 15 14 14 13 12 12 11 11 11 11 10 10 10 9 9 9 9 8 8 8 7 7 7 7 7 7 6 6 6 5 4 4 4 4 4 4 4 4 5 5 5 4 4 4 4 4 4 3 3 3 3 3 3 2 2
24 23 21 19 18 18 18 18 17 16 16 16 14 13 13 13 13 13 14 15 15 15 16 16 15 15 15 15 15 15 14 14 14 13 12 11 11 11 11 10 10 10 9 9 9 9 9 8 8 8 7 7 7 7 7 7 7 7 6 5 5 5 5 5 5 5 5 5 5 5 6 5 5 5 5 5 5 4 4 4 4 4 3 3 3
21 22 22 21 19 19 18 18 18 18 17 17 17 15 13 13 14 14 15 15 15 15 16 16 16 15 15 15 15 14 14 14 13 12 12 11 10 10 10 10 10 9 9 9 9 9 9 9 9 8 8 8 8 7 7 7 7 7 7 6 6 6 6 5 5 6 6 5 5 5 6 6 5 5 5 5 5 5 5 5 4 4 4 4 3
Wind_Direction
235 224 218 215 214 215 214 215 216 218 221 224 225 226 229 233 239 244 248 252 261 270 281 293 308 323 331 338 344 351 357 1 4 8 12 20 27 33 36 40 39 37 38 39 40 44 46 47 49 51 50 51 52 51 50 52 56 62 67 72 75 77 80 82 84 87 90 91 93 96 95 94 95 94 92 88 85 83 81 78 77 74 71 70 68
231 223 217 214 213 216 214 215 218 219 221 223 225 226 228 231 236 240 244 247 253 260 269 279 293 309 321 328 331 338 344 349 356 3 10 19 26 33 38 40 40 40 42 43 44 47 48 49 51 52 53 53 53 53 53 55 59 65 70 74 77 79 80 81 83 86 88 90 93 96 95 94 95 95 92 88 84 82 81 79 77 75 72 70 69
229 221 215 214 214 215 215 216 218 219 221 223 223 224 226 229 234 236 240 243 249 255 261 268 281 295 306 317 319 321 328 333 340 353 4 14 23 33 40 42 42 45 45 46 48 49 50 51 52 53 54 54 54 55 56 58 61 67 71 74 77 78 78 79 82 85 88 90 93 95 95 93 94 95 92 87 83 81 79 79 78 75 73 72 72
226 218 213 212 213 214 215 216 217 219 220 221 221 222 225 228 232 235 238 241 247 251 255 261 271 282 289 298 307 309 314 317 321 339 352 3 17 34 42 46 48 49 49 50 51 52 53 53 54 54 56 56 55 56 58 60 63 69 72 73 75 76 76 77 80 84 87 88 90 91 93 92 92 91 89 86 82 81 78 78 77 75 74 72 72
222 214 211 209 211 214 215 216 216 217 218 220 220 221 224 227 231 234 236 240 245 248 252 255 261 270 275 279 288 297 305 306 308 325 337 349 9 35 48 52 54 54 53 54 55 56 56 55 55 55 56 57 56 57 60 62 65 69 71 73 74 74 75 77 79 82 83 84 85 85 86 89 91 88 88 87 84 83 80 77 77 76 75 74 71
220 213 211 210 212 214 214 216 216 217 218 220 220 222 225 228 231 234 237 239 243 247 249 252 258 261 264 269 275 285 294 299 301 310 314 315 351 38 59 66 64 60 58 59 58 58 57 57 57 57 56 57 57 58 62 65 66 68 69 71 72 72 73 75 78 80 81 86 86 82 80 86 92 90 88 87 86 86 84 80 78 77 75 73 71
220 212 211 211 213 214 215 216 216 217 219 220 221 223 226 229 232 235 237 238 241 245 248 250 254 256 258 264 269 275 283 290 294 297 291 277 278 51 85 86 77 68 65 62 58 58 59 59 59 58 57 56 57 59 63 66 67 69 69 70 71 71 71 72 74 75 79 81 85 86 83 86 90 91 90 88 88 89 89 84 79 77 74 73 72
219 213 212 212 214 214 214 216 216 217 219 221 223 225 227 229 233 235 236 238 240 243 246 248 251 254 256 261 265 268 274 279 282 281 272 260 241 193 137 106 91 82 73 63 56 59 61 60 59 58 57 57 58 60 64 67 69 71 71 71 71 70 67 66 66 69 73 72 83 92 88 86 86 89 92 90 88 89 89 85 80 76 73 72 72
217 212 211 213 215 212 213 216 216 218 219 221 224 225 228 230 233 235 236 237 240 242 244 248 249 252 255 259 261 262 267 271 273 268 260 250 227 199 164 129 118 106 83 68 62 64 63 61 58 57 57 58 59 61 65 67 71 74 73 70 68 66 61 61 61 66 77 80 87 91 87 86 86 88 91 90 88 87 84 82 81 78 75 73 72
212 211 211 213 212 210 213 215 215 218 220 222 225 227 229 232 234 235 236 238 241 243 244 247 248 250 254 256 257 258 261 263 264 260 249 236 222 208 186 168 161 146 104 84 75 69 64 60 58 58 58 59 61 62 65 68 72 76 74 69 65 62 60 62 62 69 81 87 90 88 84 84 85 88 91 90 88 85 82 82 82 80 77 75 74
206 211 212 210 209 209 211 213 216 218 221 223 225 228 231 233 235 237 238 239 241 242 243 245 247 249 252 254 254 256 258 257 254 252 241 226 219 215 204 194 193 186 159 126 92 70 63 62 62 61 60 62 63 63 66 70 74 77 74 68 61 58 58 60 64 76 84 86 90 88 85 85 86 90 91 91 89 85 84 84 83 80 78 76 75
204 212 212 208 207 209 211 213 216 219 222 224 226 229 231 234 236 238 239 240 241 241 242 244 247 249 250 252 253 256 257 251 246 246 237 223 218 217 212 204 203 205 204 187 131 84 73 71 66 62 63 64 66 67 69 75 78 78 71 62 56 53 55 58 64 81 86 85 88 86 86 88 89 90 91 91 89 86 85 86 84 81 78 76 75
204 212 210 206 209 210 212 214 217 221 223 225 228 230 232 235 236 238 238 239 240 239 240 244 247 249 250 252 254 257 255 247 242 239 233 224 219 217 213 206 205 209 212 205 191 145 98 79 67 62 68 71 72 73 76 81 80 76 67 59 55 52 54 57 66 83 87 86 86 86 87 88 88 90 93 92 89 87 86 85 84 82 78 75 74
203 212 209 207 210 211 214 216 219 222 224 228 230 232 233 234 235 236 237 237 239 238 240 244 248 249 251 254 255 254 251 245 238 232 229 225 220 218 214 210 208 210 215 211 212 200 148 97 74 71 81 85 80 80 84 88 82 74 66 58 55 51 51 53 68 87 89 87 88 88 91 89 88 92 93 92 91 89 86 84 84 80 76 73 71
208 215 212 210 213 215 219 221 223 225 228 231 232 234 234 234 234 234 235 236 237 237 240 244 247 250 251 252 253 251 247 242 234 227 225 223 221 217 215 214 211 211 215 217 218 208 185 155 107 95 99 99 91 90 93 92 83 75 66 57 53 51 50 52 72 89 88 86 88 89 91 91 90 94 96 94 91 87 85 84 82 78 74 72 68
218 220 215 214 218 220 224 225 227 229 231 234 235 236 235 234 233 233 234 235 235 236 239 243 246 248 249 250 250 250 246 239 230 225 222 222 220 217 217 216 212 212 216 220 218 209 201 191 167 141 125 116 104 98 102 95 82 75 67 58 50 47 46 52 75 87 86 88 90 89 89 92 93 95 98 94 89 87 86 84 80 76 74 72 68
224 223 220 220 222 224 228 229 230 232 235 236 237 237 236 234 232 232 233 234 234 236 239 242 244 245 248 250 248 246 242 235 228 223 221 220 220 218 218 217 215 216 217 220 217 214 211 205 200 183 162 143 131 120 133 110 74 74 72 60 47 43 45 59 80 88 88 88 86 83 86 94 98 98 97 92 89 88 86 83 79 76 72 69 67
226 224 223 225 226 227 229 231 233 236 237 238 237 237 236 234 232 233 233 233 233 235 239 241 242 243 246 246 244 242 237 232 227 223 222 221 221 218 218 218 217 219 220 221 219 216 216 215 213 205 201 195 198 212 200 194 54 75 77 56 45 40 41 60 82 91 89 86 80 77 82 91 99 101 99 93 89 87 84 81 78 73 68 66 65
226 225 225 227 229 230 231 233 235 237 238 238 238 237 235 233 233 232 231 231 232 235 237 238 241 243 244 243 240 239 234 230 227 225 224 223 221 217 217 217 220 222 222 221 219 219 221 223 221 218 220 225 233 233 213 208 237 49 76 50 42 27 27 63 89 88 80 84 81 76 79 85 91 100 103 96 88 87 83 77 73 67 64 62 63
227 228 228 230 232 232 234 235 236 237 238 238 237 235 234 233 232 232 230 230 231 234 235 237 241 242 242 240 238 236 234 230 227 226 224 223 219 216 216 218 222 224 223 221 220 221 224 226 226 227 229 234 240 235 227 223 231 250 242 308 355 356 8 75 119 32 54 100 94 76 81 88 87 91 95 95 94 93 85 73 66 59 56 56 57
231 233 233 234 235 236 235 237 238 237 237 236 235 233 232 231 231 231 229 229 230 233 234 237 240 240 239 237 237 237 235 231 228 226 223 221 218 216 217 220 222 224 224 221 221 223 225 228 232 234 236 237 238 240 243 240 237 243 255 264 282 307 307 277 269 279 268 235 236 261 216 139 109 93 87 100 108 100 80 61 48 40 41 45 48
234 235 237 237 238 239 238 239 239 236 235 234 233 231 230 230 231 230 229 229 230 232 235 238 238 237 237 236 237 237 235 232 227 224 221 219 216 215 218 221 223 226 226 224 224 225 227 231 234 237 239 237 235 237 242 247 247 251 263 268 276 282 272 255 260 275 281 273 263 258 258 258 240 224 246 221 191 183 33 12 8 7 12 24 33
234 236 238 237 239 241 240 240 239 236 234 232 230 229 229 229 229 228 228 229 230 233 236 238 238 237 237 236 235 233 233 231 225 221 219 215 213 215 220 223 224 228 230 229 229 229 231 233 234 237 239 237 236 237 240 245 248 254 266 273 276 272 259 250 252 270 283 274 258 256 259 263 257 250 255 258 251 256 276 298 316 325 329 343 3
235 238 239 239 241 242 242 241 238 235 234 230 228 227 226 227 227 226 227 229 231 234 237 238 237 236 236 235 233 231 231 230 224 218 214 210 212 216 220 224 225 229 233 234 234 233 235 235 235 239 240 240 241 242 241 241 245 253 265 272 272 268 262 257 253 263 274 265 253 253 257 259 258 254 255 258 259 263 271 281 291 296 296 304 321
237 240 242 241 242 243 241 240 238 237 234 229 229 227 224 224 223 224 225 227 230 232 235 235 233 233 233 232 232 231 231 229 221 212 209 210 214 218 221 225 228 231 233 234 237 237 238 238 238 241 243 244 245 245 244 243 244 254 265 267 265 270 272 263 252 259 269 263 255 256 257 258 257 256 257 260 263 267 272 277 279 281 280 284 292
239 242 243 242 243 243 239 239 241 240 232 228 230 225 221 222 220 221 223 225 227 229 232 232 231 232 231 230 230 231 229 222 212 208 211 215 217 219 224 228 231 233 233 235 237 239 240 242 242 242 245 247 246 245 246 245 246 255 263 263 262 268 273 268 259 259 264 260 257 258 257 257 258 258 260 263 267 270 274 277 275 274 274 276 280
242 244 244 243 243 242 238 240 242 238 232 234 234 225 220 220 218 218 220 222 222 224 229 230 230 228 228 229 229 230 226 216 208 209 215 217 218 222 226 229 233 235 235 237 240 241 242 243 245 245 246 247 246 246 247 248 251 257 261 264 265 265 269 273 267 260 259 257 254 257 258 258 259 260 262 264 267 270 273 275 272 271 271 273 275
244 245 246 244 243 241 241 242 240 236 234 237 234 226 224 224 222 218 216 218 220 223 226 227 227 225 226 227 227 228 221 210 207 212 216 218 221 224 227 229 233 235 236 239 242 245 245 243 246 246 245 245 245 246 248 251 256 258 262 267 268 271 271 266 263 259 257 256 254 258 260 260 260 261 263 263 265 268 270 271 268 268 269 270 271
245 247 248 245 244 244 242 241 237 234 233 234 230 225 229 230 226 221 217 217 221 226 226 225 226 225 225 224 225 223 215 209 210 215 217 220 223 225 228 229 232 234 237 241 242 245 244 240 241 243 241 242 244 245 249 254 258 261 266 270 271 279 271 249 248 254 252 256 257 260 261 260 261 261 262 263 264 265 267 267 266 265 266 268 268
245 247 249 249 249 244 240 238 233 231 231 232 228 224 228 229 226 225 222 218 223 228 226 227 229 227 225 225 224 222 216 212 214 216 216 219 222 223 226 228 231 233 235 239 239 238 237 234 236 239 237 240 246 247 252 255 260 265 270 273 274 281 260 231 240 250 246 253 258 261 262 261 262 262 263 264 264 263 263 263 262 261 262 264 264
244 247 251 251 247 241 238 235 231 230 231 229 227 227 229 229 228 230 227 223 225 226 226 228 230 229 228 227 225 224 220 214 214 216 215 219 221 224 228 230 233 233 233 236 236 234 234 234 235 239 239 243 248 251 256 258 263 267 267 271 271 273 256 240 250 251 245 254 260 261 260 261 265 264 264 264 263 260 259 257 256 257 257 258 260
245 246 249 248 242 239 238 234 231 231 230 228 229 231 229 228 229 231 229 227 227 227 228 230 231 230 228 227 225 224 222 216 213 215 217 221 223 227 232 233 234 233 234 236 237 236 237 239 237 239 242 244 249 255 261 261 265 267 264 267 265 267 268 259 262 258 257 266 266 263 260 263 265 263 261 259 258 253 249 249 249 252 253 253 254
246 246 246 245 241 238 235 233 231 230 229 229 231 230 226 227 229 230 230 229 229 229 231 232 230 228 225 225 224 223 223 214 209 213 219 223 223 228 232 233 233 231 232 236 236 236 239 240 236 238 243 246 249 253 260 259 262 265 264 268 266 269 269 261 268 269 270 271 264 263 265 266 264 258 252 250 252 247 242 243 246 251 252 251 250
245 245 243 241 239 235 233 233 231 229 229 229 228 227 225 227 229 230 230 229 230 230 230 231 229 227 226 226 222 222 223 211 208 216 222 223 225 229 231 231 232 230 233 236 235 235 237 237 234 237 243 247 247 249 257 257 260 263 265 268 266 272 269 264 275 272 269 269 262 263 266 266 261 252 246 245 248 244 241 244 248 251 249 249 249
243 243 240 238 236 233 233 233 230 229 227 226 226 227 225 225 228 229 228 227 228 229 229 229 228 228 227 225 222 222 220 212 214 222 222 224 229 231 232 231 231 231 233 234 232 232 233 233 233 235 239 244 244 245 255 258 259 261 264 266 265 275 281 282 287 275 267 267 261 258 258 262 259 251 246 242 240 237 237 242 246 246 245 246 244
241 240 237 235 233 231 232 231 228 226 226 227 226 226 224 224 227 229 227 225 226 227 227 228 227 227 226 223 222 221 217 216 222 225 223 228 232 232 231 231 231 231 231 230 230 231 229 229 233 234 237 241 239 236 249 257 257 259 262 265 266 278 286 288 292 278 264 261 259 255 253 258 255 247 241 231 224 220 224 236 243 244 244 242 236
240 239 236 234 233 230 230 228 225 225 226 226 225 225 224 224 229 232 230 228 226 224 224 225 224 225 226 224 221 218 217 222 227 225 226 231 232 232 231 230 230 229 231 230 228 229 227 228 230 232 235 238 233 229 240 247 251 260 264 268 275 283 288 289 288 275 265 263 261 255 249 248 241 230 219 207 202 203 210 221 226 233 233 228 226
240 239 238 235 233 230 228 226 224 225 225 224 224 223 224 226 229 231 231 228 224 221 222 223 223 224 224 223 222 220 222 227 228 225 226 230 231 233 233 231 228 228 232 230 226 226 228 230 230 230 233 234 230 225 232 240 250 262 264 274 283 287 291 292 286 278 276 268 259 255 247 236 221 207 201 195 194 197 197 192 187 179 178 190 200
241 240 238 237 235 231 227 225 225 225 224 224 225 224 224 226 226 227 227 224 223 224 224 222 223 224 223 225 228 227 228 228 226 224 225 229 233 233 234 230 227 229 232 229 227 226 226 229 229 228 229 230 230 227 229 234 243 255 262 276 284 289 293 290 289 290 286 270 257 250 239 222 205 196 196 195 190 188 183 177 171 146 136 139 151
242 241 239 238 236 231 227 226 227 227 225 226 228 227 226 224 222 222 223 223 226 227 227 226 227 228 228 231 233 233 233 230 225 223 225 228 231 231 231 228 227 231 232 228 228 227 226 226 226 226 224 220 222 225 225 227 232 246 260 271 278 288 292 290 300 303 295 285 268 240 216 199 189 186 183 176 171 170 168 162 152 139 123 108 108
243 243 241 239 237 233 228 225 226 228 227 228 229 228 226 223 221 223 225 227 228 228 229 231 233 235 234 234 236 236 236 232 226 223 225 225 226 229 230 229 230 233 233 230 227 227 226 224 224 226 223 217 218 222 224 227 229 235 244 247 262 289 287 299 323 330 333 325 286 194 182 174 170 169 165 159 154 154 154 146 140 137 121 100 93
243 244 242 239 237 232 226 222 223 226 226 226 225 224 222 221 224 227 229 230 230 230 230 233 235 236 236 235 236 236 234 233 230 227 226 225 226 229 231 233 234 234 235 233 229 228 224 222 223 224 223 221 220 222 226 231 232 230 229 223 229 288 324 1 17 7 10 34 90 143 160 162 157 155 155 155 152 149 148 143 141 139 123 102 96
246 244 243 241 237 231 226 222 223 223 222 222 221 221 220 222 227 230 231 232 232 232 231 234 237 237 237 236 235 234 232 232 231 230 228 227 229 231 233 235 235 235 235 233 231 229 225 224 223 222 221 221 222 224 230 235 232 221 216 224 229 224 228 283 34 16 30 74 101 131 147 150 147 149 151 152 153 153 152 150 147 138 123 112 109
246 244 244 241 235 230 225 221 222 222 221 220 218 218 221 225 230 231 232 233 233 233 234 237 239 238 238 237 235 233 230 230 230 229 228 228 230 232 235 236 235 235 235 233 231 229 226 224 223 221 219 219 222 228 233 235 229 219 219 232 229 217 226 231 199 129 109 114 116 128 141 145 146 150 151 146 146 148 148 148 146 140 130 121 114
247 247 246 240 231 226 224 222 223 222 221 220 219 221 225 227 230 232 233 234 235 236 237 239 239 239 238 237 236 232 229 229 229 228 228 229 232 233 234 235 233 233 233 233 232 229 227 226 224 222 220 220 222 227 233 233 227 222 223 227 228 236 234 206 179 174 184 154 139 137 144 150 151 154 153 149 148 148 147 146 145 145 142 131 121
247 246 243 237 231 231 230 227 226 225 224 222 221 225 229 231 232 235 237 239 240 240 240 240 239 239 238 236 234 230 228 228 227 227 228 230 232 232 232 233 231 232 233 231 231 230 229 228 227 225 225 225 223 224 230 230 226 222 224 230 238 245 219 199 198 210 196 178 168 158 159 166 166 167 170 170 170 165 159 154 147 148 150 145 136
244 241 240 241 239 236 232 230 232 233 230 226 225 228 233 235 237 240 243 244 243 242 242 240 239 239 238 233 230 229 227 226 227 230 230 229 231 230 230 230 230 232 233 230 230 231 230 229 230 229 229 228 225 223 225 227 226 223 225 232 242 239 212 207 215 204 192 199 196 184 180 186 186 185 189 191 189 188 183 172 162 162 168 172 176
242 244 246 247 244 237 232 232 234 234 231 231 231 232 235 237 240 244 245 244 243 244 244 241 239 238 235 231 229 228 227 227 228 229 229 228 228 228 227 227 228 230 231 230 231 231 230 229 229 229 229 228 227 225 223 225 227 225 225 231 238 234 220 217 215 204 202 203 204 207 201 199 201 199 201 201 198 203 201 187 181 184 197 211 215
246 250 250 249 244 238 234 234 234 233 232 232 233 235 238 239 243 247 247 246 245 245 244 240 236 234 232 230 228 227 227 226 223 224 228 228 225 225 225 224 226 228 228 229 231 229 228 228 227 227 226 226 228 228 226 226 228 227 227 231 233 228 222 221 219 215 211 207 209 214 209 209 214 212 211 210 209 212 206 200 202 207 220 231 227
248 248 246 247 245 237 234 233 231 231 229 228 230 235 237 237 243 251 251 248 246 244 241 236 231 232 233 229 227 227 224 218 218 223 226 224 221 221 221 221 223 226 225 227 229 226 225 227 227 228 228 227 228 228 228 229 230 229 229 229 227 223 221 223 226 220 216 216 215 212 210 212 213 215 220 221 217 216 212 211 217 220 226 233 235
247 246 244 243 240 233 232 230 228 229 229 229 230 233 240 247 251 257 254 247 245 243 236 230 230 232 230 225 223 221 216 214 217 221 220 218 218 218 218 218 221 223 224 226 227 225 226 227 228 230 232 231 230 229 230 232 231 228 228 228 227 226 225 225 227 225 222 221 216 213 213 211 209 214 223 223 219 221 220 219 222 223 227 237 243